www.pogodaiklimat.ru

Погода и климат >> Архив погоды >> Россия >> Якутия >> Иэма


ПОГОДА в Иэме

  • Прогноз погоды в Иэме
  • Монитор погоды в Иэме
  • Климат города

АРХИВ ПОГОДЫ в Иэме

Время (UTC), дата Ветер
(напр.,м/с)
 
Видим.   Явления Облачность Т
(С)
Тd
(С)
f
(%)
Тe
(С)
Тes
(С)
Комфортность P
(гПа)
Po
(гПа)
Тmin
(С)
Tmax
(С)
R
(мм)
R24
(мм)
S
(см)
09 18.04 штиль 0 50 км 6/0
[Ac trans Ci fib]
-3.8 -9.5 65 -4 -4 1014.2 931.6 -3.0
12 18.04 В 1 50 км 6/0
[Ac trans]
-13.7 -18.0 70 -16 -16 1018.6 932.6
15 18.04 В 1 50 км 6/0
[Ac trans]
-13.7 -18.0 70 -16 -16 1018.6 932.6
18 18.04 штиль 0 50 км 3/0
[Ac trans]
-18.9 -18.9 100 -19 -19 1022.0 934.1
21 18.04 штиль 0 50 км 3/0
[Ci fib]
-22.5 -23.1 95 -23 -21 1024.0 934.6 -24.5 30
00 19.04 штиль 0 50 км 3/0
[Ci fib]
-15.6 -16.2 95 -16 -9 1021.7 934.9
03 19.04 Ю 2 50 км 4/0
[Ci fib]
-3.6 -8.4 69 -7 0 1017.5 934.6
06 19.04 Ю 3 50 км 9/0
[Ac trans Ci fib]
-2.4 -7.2 70 -7 -5 1016.5 934.2
09 19.04 Ю 5 50 км 9/0
[Ac As]
-3.8 -7.9 73 -11 -10 1017.1 934.3 -2.0
12 19.04 В 1 50 км 4/0
[Ac trans]
-16.7 -18.6 85 -19 -19 1022.2 934.9
15 19.04 штиль 0 50 км 6/0
[Ac trans]
-9.0 -9.7 95 -10 -10 1019.5 934.9
18 19.04 штиль 0 50 км 8/0
[Ac trans]
-8.4 -9.1 95 -9 -9 1019.5 935.1
21 19.04 штиль 0 50 км 4/0
[Ac trans]
-8.3 -8.9 95 -9 -8 1019.6 935.3 -17.0 28
00 20.04 Ю 4 50 км ясно -4.2 -7.6 77 -10 -7 1017.6 934.8
03 20.04 ЮВ 5 50 км 4/0
[Ac trans]
-2.0 -6.2 73 -8 -5 1016.2 934.0
06 20.04 Ю 5 50 км 6/0
[Ac trans]
-1.5 -5.9 72 -8 -6 1015.0 933.1
09 20.04 ЮВ 1 50 км 4/0
[Ac trans Ci fib]
-2.1 -7.5 66 -4 -3 1015.1 932.9 -1.2
12 20.04 ЮВ 3 50 км 6/0
[Ac trans Ci fib]
-8.0 -11.6 75 -14 -14 1016.7 932.6
15 20.04 ЮВ 1 50 км 4/0
[Ac trans]
-7.5 -9.7 84 -10 -10 1016.4 932.5
18 20.04 В 1 50 км 4/0
[Ac trans]
-10.1 -10.7 95 -12 -12 1016.9 932.2
21 20.04 ЮЗ 1 50 км 6/0
[Ac trans]
-5.5 -8.5 79 -8 -7 1016.0 923.8 -11.7 28
00 21.04 ЮВ 5 50 км 8/0
[Ac trans]
-0.6 -6.6 64 -6 -5 1013.4 931.8
03 21.04 З 9 50 км 9/0
[Ac trans]
+0.4 -6.2 61 -7 -6 1013.1 931.9
06 21.04 Ю 6 50 км 9/0
[Ac trans]
+1.1 -6.4 57 -5 -4 1012.9 931.9
09 21.04 Ю 4 50 км 9/0
[Ac trans]
+0.5 -6.5 59 -4 -4 1013.9 932.5 +1.3
12 21.04 штиль 0 50 км 6/0
[Ac trans]
-2.6 -7.8 67 -3 -3 1016.2 933.8
15 21.04 50 км 6/0
[Ac trans]
-4.6 -9.8 67 1017.4 934.3
18 21.04 ЮВ 1 50 км 6/0
[Ac trans]
-4.5 -8.8 72 -7 -7 1018.1 935.0
21 21.04 В 2 50 км 3/0
[Ci fib]
-4.4 -9.1 70 -8 -7 1019.0 935.8 -8.1 28
00 22.04 Ю 1 50 км ясно +0.4 -6.6 59 -1 +6 1018.0 936.4
03 22.04 СЗ 5 50 км 3/0
[Ci fib]
+3.0 -3.5 62 -2 +2 1016.9 937.0
06 22.04 ЮВ 5 50 км 3/0
[Ci fib]
+3.5 -2.8 63 -1 +2 1018.1 937.4
09 22.04 Ю 4 50 км 3/0
[Ci fib]
+3.0 -3.5 62 -1 -1 1018.9 938.0 +4.7
12 22.04 В 2 50 км 3/0
[Ci fib]
-3.0 -7.2 73 -7 -7 1022.2 939.3
15 22.04 З 2 50 км ясно -4.3 -6.2 87 -9 -9 1023.3 939.9
21 22.04 штиль 0 50 км 3/0
[Ci fib]
-14.6 -15.9 90 -15 -13 1029.0 941.9 -17.5 28
00 23.04 штиль 0 50 км 3/0
[Ci fib]
-10.3 -13.1 80 -11 -3 942.4
03 23.04 штиль 0 50 км 1/0
[Ci fib]
-0.4 -6.7 62 -1 +10 1024.4 942.1
06 23.04 штиль 0 50 км ?/? +4.4 -4.9 51 +4 +4 1022.4 941.5
09 23.04 штиль 0 50 км 1/0
[Ci fib]
+4.8 -3.5 55 +4 +6 1021.9 941.2 +4.8
12 23.04 50 км 1/0
[Ci fib]
+1.5 -6.3 56 1023.5 941.7
15 23.04 З 1 50 км 1/0
[Ci fib]
-10.1 -11.4 90 -12 -12 1027.2 941.6
18 23.04 штиль 0 50 км ?/? -12.3 -12.9 95 -12 -12 1028.1 941.8
21 23.04 штиль 0 50 км 4/0
[Ci fib]
-12.0 -12.0 100 -12 -11 1028.2 942.0 -14.1 28
00 24.04 штиль 0 50 км 8/0
[Ci fib]
-6.6 -9.0 83 -7 -1 1016.0 941.6
03 24.04 Ю 4 50 км 4/0
[Ci fib]
+4.3 -2.5 61 0 +6 1021.4 940.6
06 24.04 Ю 4 50 км 1/0
[Ci fib]
+4.6 -2.7 59 +1 +5 1020.3 939.7
09 24.04 Ю 4 50 км 6/0
[Ac trans]
+3.3 -2.1 68 -1 -1 1019.6 938.7 +5.1
12 24.04 Ю 3 50 км 4/0
[Ci fib]
+0.5 -1.7 85 -4 -4 1020.1 938.4
15 24.04 штиль 0 50 км 8/0
[Ci fib]
-2.3 -2.9 96 -4 -4 1020.3 937.7
18 24.04 Ю 1 50 км 6/0
[Ci fib]
-5.1 -5.8 95 -8 -8 1020.5 937.1
21 24.04 ЮЗ 1 50 км 10/0
[Ac und]
-2.1 -2.7 96 -4 -4 1018.9 936.4 -5.8 28
00 25.04 Ю 1 50 км 10/0
[Ac und]
+0.3 -0.3 96 -2 0 1017.5 935.9
03 25.04 СЗ 1 50 км 9/0
[Ac trans]
+1.6 +0.2 90 -0 +5 1016.0 935.1
06 25.04 СЗ 4 50 км 9/0
[Ac trans]
+0.9 -0.8 88 -4 -3 1015.9 934.6

 

Местоположение метеостанции Иэма (Якутия, Россия): широта 65.30 долгота 135.80 высота над уровнем моря 675 м.

В архиве по умолчанию представлена погода в Иэме за последнюю неделю. Архивные данные за месяц целиком и за предыдущие месяцы, начиная с января 2011 года, Вы можете получить, выбрав интересующий диапазон дат из раскрывающегося списка и нажав кнопку "Ввод!".

Внимание! Время в таблицах - всемирное. Для получения местного времени необходимо прибавить поправку, которая в Иэме равна 9 ч.

Смотрите также архив погоды в соседних городах и на ближайших метеорологических станциях:

Погода в Томпо (Якутия, Россия) (150 км)
Погода в Усть-Чарках (Якутия, Россия) (171 км)
Погода в Екюччю (Якутия, Россия) (250 км)
Погода в Батагае (Якутия, Россия) (267 км)
Погода в Себян-Кюеле (Якутия, Россия) (269 км)
Погода в Верхоянске (Якутия, Россия) (274 км)
Погода в Крест-Хальджае (Якутия, Россия) (284 км)
Погода в Теплом Ключе (Якутия, Россия) (284 км)
Погода в Верхоянском Перевозе (Якутия, Россия) (286 км)
Погода в Восточной (Якутия, Россия) (294 км)

Пояснения к столбцам:

Ветер - указаны скорость ветра в м/с - средняя за 10 мин, порывы в срок и между сроками (в фигурных скобках) и направление, откуда дует ветер: С - северный, СВ - северо-восточный, В - восточный, ЮВ - юго-восточный, Ю - южный, ЮЗ - юго-западный, З - западный, СЗ - северо-западный.
Видимость - горизонтальная дальность видимости в метрах или километрах. При видимости от 1 до 10 км при отсутствии осадков обычно наблюдается дымка, при ухудшении видимости до 1 км и менее - туман. В сухую погоду видимость может ухудшаться дымом, пылью или мглою.
Явления - указаны атмосферные явления, наблюдавшиеся в срок или в последний час перед сроком; фигурными скобками обозначены явления, наблюдавшиеся между сроками (за 1-3 часа до срока); квадратными скобками обозначены град или гололедные отложения с указанием их диаметра в мм.
Облачность - указаны через наклонную черту общая и нижняя облачность в баллах и высота нижней границы облаков в метрах; квадратными скобками обозначены формы облаков: Ci - перистые, Cs - перисто-слоистые, Cc - перисто-кучевые, Ac - высококучевые, As - высокослоистые, Sc - слоисто-кучевые, Ns - слоисто-дождевые, Cu - кучевые, Cb - кучево-дождевые. Подробнее классификацию облаков см. в Атласе облаков (PDF).
T - Температура воздуха - температура, измеренная на высоте 2 м над землей.
Td - Температура точки росы - температура, при понижении до которой содержащийся в воздухе водяной пар достигнет насыщения.
f - Относительная влажность воздуха - влажноcть воздуха, измеренная на высоте 2 м над землей.
Te - Эффективная температура - температура, которую ощущает одетый по сезону человек в тени. Характеристика душности погоды. При расчете учитывается влияние влажности воздуха и скорости ветра на теплоощущения человека.
Tes - Эффективная температура на солнце - температура, которую ощущает человек, с поправкой на солнечный нагрев. Характеристика знойности погоды. Зависит от высоты солнца над горизонтом, облачности и скорости ветра. Ночью, в пасмурную погоду, а также при ветре 12 м/с и более поправка равна нулю.
P - Атмосферное давление - приведенное к уровню моря атмосферное давление.
Po - Атмосферное давление - измеренное на уровне метеостанции атмосферное давление.
Tmin - Минимальная температура - минимум температуры воздуха на высоте 2 м над землей.
Tmax - Максимальная температура - максимум температуры воздуха на высоте 2 м над землей.
R - Количество осадков - Количество выпавших осадков за период времени, мм. При наведении курсора мыши на число - период времени, за который выпало указанное количество осадков.
R24 - Количество осадков - Количество выпавших осадков за 24 часа, мм.
S - Снежный покров - Высота снежного покрова, см. При наведении курсора мыши на число - состояние снежного покрова и степень покрытия местности в баллах.